Back to catalog

STARLINK-11496

AliveCommunicationsVLEO
NORAD 62267·PAYLOAD·🇺🇸 United States

Launched Dec 8, 2024 from Cape Canaveral Space Force Station

Loading…

Next Passes (next 24 hours)

TLE

FreshSource: CelesTrak SupGP

Epoch: Sep 14, 2026, 22:43 UTC

1 62267C 24237A   26257.94701389 -.00061906  00000+0 -48067-3 0  2572
2 62267  43.0008 356.1675 0001766 270.8217  94.6506 15.70876431    13

Track STARLINK-11496 in real time with AllMySat

Download on the App Store